Weather in Darbhanga

India     26°08′43″N   85°53′58″E
temp.,
°C
wind,
m/s
gust,
m/s
humid.,
%
clouds,
%
prec.,
mm/h
press.,
hPa
HPBL,
m
17 june, thu
thu1723:30+27ese3987100 1.5 999297
02:30+27ene61288100 1.6 998701
05:30+26e81589100 1.6 998754
08:30+29ese9147760 0.0 9991020
11:30+32ese9126389 0.1 9991524
14:30+31ese8126811 1.1 9971212
17:30+31ese811685 1.6 9971219
20:30+29ese510775 0.3 1000452
18 june, fri
fri1823:30+27e410825 0.3 1000413
02:30+27e5108426 1.6 1000426
05:30+26e7128639 2.9 1000619
08:30+30ese8116936 0.0 10021106
11:30+32ese796195 0.3 10011439
14:30+33ese685764 0.6 9991571
17:30+31ese586412 0.6 999614
20:30+29ese38745 0.0 1001265
19 june, sat
sat1923:30+28ese36765 0.0 1001167
02:30+26e51189100 5.6 1000321
05:30+25e6128997 11.9 1001524
08:30+28ese81178100 0.1 1002944
11:30+28ese71174100 0.1 1002921
14:30+28se377594 0.1 1000734
17:30+29e597372 0.9 999627
20:30+27e61381100 2.5 1001595
20 june, sun
sun2023:30+26e6148069 2.6 1000626
02:30+25ene51187100 0.3 999543
05:30+26ene3128785 0.3 999681
08:30+26e7158494 0.2 1001863
11:30+27e91481100 0.6 10011001
14:30+27e81380100 0.2 10001076
17:30+26e91583100 0.7 1001964
20:30+25e91787100 0.1 1002805
21 june, mon
mon2123:30+25e7158797 1.1 1002669
02:30+25e61388100 0.1 1001617
05:30+25e61289100 0.5 1002631
08:30+26e6128684 0.6 1003689
11:30+31e896693 1.3 10021259
14:30+32e686089 0.1 10001476
17:30+31e576527 0.3 999760
20:30+29e37775 0.0 1001184